Regional Weather Roundup
Issued by NWS

Home | Current Version | Previous Version | Graphics & Text | Print | Product List | Glossary Off
Versions: 1 2 3 4 5 6 7 8 9 10 11 12 13 14 15 16 17 18 19 20 21 22 23 24 25 26 27 28 29 30 31 32 33 34 35 36 37 38 39 40 41 42 43 44 45 46 47 48 49 50

000
ASUS44 KMEG 301210
RWRTN
TENNESSEE HOURLY STATE WEATHER ROUNDUP
NATIONAL WEATHER SERVICE MEMPHIS TN
700 AM CDT SAT APR 30 2016

TNZ002-004-019-021-049-052-054-088>092-301300-
WEST TENNESSEE

CITY           SKY/WX    TMP DP  RH WIND       PRES   REMARKS
MEMPHIS INTL   TSTM      66  63  90 W7        29.88R FOG
NWS MEMPHIS      N/A     64 N/A N/A MISG        N/A
JACKSON        LGT RAIN  63  61  93 S3        29.86R
DYERSBURG      CLOUDY    63  61  94 N5          N/A
UNION CITY     MOSUNNY   61  61 100 E5        29.85S
LEXINGTON      CLOUDY    61  61 100 NE3       29.88R
$$

TNZ008-025-027-028-033-062-065-066-301300-
NORTH MIDDLE TENNESSEE

CITY           SKY/WX    TMP DP  RH WIND       PRES   REMARKS
NASHVILLE      LGT RAIN  65  60  84 N3        29.92R
CLARKSVILLE    CLOUDY    61  60  97 E5        29.90S FOG
SMYRNA         CLOUDY    63  61  93 CALM      29.92R
COOKEVILLE     MOSUNNY   61  59  94 CALM      29.92R
CROSSVILLE     CLOUDY    72  49  44 VRB3      29.98R
$$

TNZ061-075-076-078-094-096-097-301300-
SOUTH MIDDLE TENNESSEE

CITY           SKY/WX    TMP DP  RH WIND       PRES   REMARKS
FAYETTEVILLE   MOSUNNY   63  59  88 SE3       29.92R
TULLAHOMA      PTSUNNY   64  57  77 CALM      29.94R
WINCHESTER     PTSUNNY   66  52  59 S9        29.94R
MCMINNVILLE    PTSUNNY   63  61  94 CALM      29.93R
COLUMBIA         N/A    N/A N/A N/A CALM      29.91R
SHELBYVILLE    CLOUDY    64  61  88 CALM      29.93R
$$

TNZ017-018-042-046-047-301300-
NORTHEAST TENNESSEE

CITY           SKY/WX    TMP DP  RH WIND       PRES   REMARKS
TRI CITIES     CLOUDY    59  54  83 CALM      30.01R
$$

TNZ012-013-036-069-073-074-301300-
CENTRAL EAST TENNESSEE

CITY           SKY/WX    TMP DP  RH WIND       PRES   REMARKS
KNOXVILLE      PTSUNNY   62  55  77 NE5       29.95S
OAK RIDGE      CLOUDY    63  54  72 CALM      29.97R
MORRISTOWN     SUNNY     63  52  67 E5        29.96S
$$

TNZ083-085-099-301300-
SOUTHEAST TENNESSEE

CITY           SKY/WX    TMP DP  RH WIND       PRES   REMARKS
CHATTANOOGA    CLOUDY    65  59  81 CALM      29.96R
$$

SKY/WX REPORTED AS FAIR MEANS FEW OR NO CLOUDS BELOW
12 THOUSAND FEET.





USA.gov is the U.S. government's official web portal to all federal, state and local government web resources and services.